Flight Track Log - Related Links

Times and Time Zones

All times are in EDT time to prevent confusion due to time zone crossing. See the N983CE flight status page for this flight to view local times or setup timezone preferences in your user account.

Time Position Orientation Groundspeed Altitude Reporting Facility
EDT Latitude Longitude Course Direction KTS MPH feet Rate Location/Type
Thu 02:44:51 PM 40.3447 -78.3083 343° North 277 319 3,700  Level Cleveland Center
Thu 02:46:34 PM 40.4331 -78.3436 343° North 252 290 8,400 2,908 Climbing Cleveland Center
Thu 02:47:34 PM 40.4594 -78.4272 293° West 207 238 11,600 3,126 Climbing Cleveland Center
Thu 02:48:33 PM 40.4947 -78.5217 296° West 250 288 14,600 2,850 Climbing Cleveland Center
Thu 02:49:34 PM 40.5278 -78.6217 294° West 279 321 17,300 2,430 Climbing Cleveland Center
Thu 02:50:34 PM 40.5647 -78.7244 295° West 298 343 19,500 2,200 Climbing Cleveland Center
Thu 02:51:34 PM 40.6019 -78.8356 294° West 318 366 21,700 1,250 Climbing Cleveland Center
Thu 02:52:34 PM 40.6497 -78.9575 297° West 337 388 22,000 151 Climbing Cleveland Center
Thu 02:53:33 PM 40.6908 -79.0714 295° West 342 394 22,000 300 Level Cleveland Center
Thu 02:54:34 PM 40.7525 -79.1661 311° West 342 394 22,600 1,339 Climbing Cleveland Center
Thu 02:55:34 PM 40.8367 -79.2303 330° Northwest 335 386 24,700 1,700 Climbing Cleveland Center
Thu 02:56:34 PM 40.9269 -79.2861 335° Northwest 346 398 26,000 650 Climbing Cleveland Center
Thu 02:57:34 PM 41.0256 -79.3419 337° Northwest 360 414 26,000  Level Cleveland Center
Thu 02:58:34 PM 41.1078 -79.4339 320° Northwest 374 430 26,000 50 Level Cleveland Center
Thu 02:59:34 PM 41.1592 -79.5600 298° West 372 428 26,100 655 Climbing Cleveland Center
Thu 03:00:33 PM 41.1872 -79.6753 288° West 367 422 27,300 950 Climbing Cleveland Center
Thu 03:01:34 PM 41.2172 -79.8075 287° West 367 422 28,000 347 Climbing Cleveland Center
Thu 03:02:34 PM 41.2494 -79.9453 287° West 378 435 28,000  Level Cleveland Center
Thu 03:03:33 PM 41.2878 -80.0858 290° West 384 442 28,000  Level Cleveland Center
Thu 03:04:33 PM 41.3236 -80.2153 290° West 384 442 28,000  Level Cleveland Center
Thu 03:05:34 PM 41.3553 -80.3453 288° West 379 436 28,000  Level Cleveland Center
Thu 03:06:34 PM 41.3867 -80.4781 288° West 370 426 28,000  Level Cleveland Center
Thu 03:07:34 PM 41.4181 -80.6247 286° West 391 450 28,000  Level Cleveland Center
Thu 03:08:33 PM 41.4492 -80.7742 286° West 409 471 28,000  Level Cleveland Center
Thu 03:09:33 PM 41.4822 -80.9214 287° West 414 476 28,000  Level Cleveland Center
Thu 03:10:33 PM 41.5192 -81.0767 288° West 429 494 28,000 -496 Level Cleveland Center
Thu 03:11:34 PM 41.5517 -81.2214 287° West 429 494 27,000 -1,100 Descending Cleveland Center
Thu 03:12:33 PM 41.5717 -81.3714 280° West 417 480 25,800 -1,008 Descending Cleveland Center
Thu 03:13:33 PM 41.5664 -81.5267 267° West 407 468 25,000 -694 Descending Cleveland Center
Thu 03:14:34 PM 41.5628 -81.6792 268° West 412 474 24,400 -595 Descending Cleveland Center
Thu 03:15:34 PM 41.5989 -81.8242 288° West 412 474 23,800 -1,250 Descending Cleveland Center
Thu 03:16:34 PM 41.6347 -81.9611 289° West 406 467 21,900 -2,145 Descending Cleveland Center
Thu 03:18:00 PM 41.7152 -82.1197 291° West  Level FlightAware Approximate
Thu 03:18:33 PM 41.7064 -82.2242 291° West 376 433 17,400  Level Cleveland Center
Thu 03:19:21 PM 41.7364 -82.3194 293° West 369 425 15,500 -2,550 Descending Cleveland Center
Thu 03:20:33 PM 41.7817 -82.4739 292° West 370 426 12,300 -2,318 Descending Cleveland Center
Thu 03:21:33 PM 41.8217 -82.5864 296° West 364 419 10,400 -1,140 Descending Cleveland Center
Thu 03:22:34 PM 41.8764 -82.6719 311° West 309 356 10,000 -845 Descending Cleveland Center
Thu 03:23:55 PM 41.9825 -82.6753 359° North 274 315 8,400  Descending Cleveland Center
Thu 03:24:33 PM 42.0283 -82.6825 353° North 256 295 10,000 -1,576 Climbing Cleveland Center
Thu 03:25:34 PM 42.0967 -82.6986 350° North 256 295 5,800 -2,500 Descending Cleveland Center
Thu 03:26:33 PM 42.1606 -82.7400 334° Northwest 256 295 5,000 -403 Descending Cleveland Center
Thu 03:27:33 PM 42.2244 -82.7842 333° Northwest 256 295 5,000  Level Cleveland Center
Thu 03:28:34 PM 42.2883 -82.8231 336° Northwest 256 295 5,000  Level Cleveland Center
Thu 03:29:48 PM 42.3600 -82.8903 325° Northwest 247 284 5,000  Level Cleveland Center
Thu 03:30:55 PM 42.4192 -82.9486 324° Northwest 242 278 5,000 -98 Level Cleveland Center
Thu 03:31:50 PM 42.4703 -82.9983 324° Northwest 238 274 4,800 -469 Descending Cleveland Center
Thu 03:33:03 PM 42.5333 -83.0683 321° Northwest 217 250 4,000 -375 Descending Cleveland Center
Thu 03:33:58 PM 42.5656 -83.1206 310° West 204 235 4,000 -273 Level Cleveland Center
Thu 03:34:53 PM 42.5978 -83.1753 309° West 210 242 3,500 -656 Descending Cleveland Center
Thu 03:36:06 PM 42.6356 -83.2475 305° West 179 206 2,600 -582 Descending Cleveland Center
Thu 03:37:07 PM 42.6592 -83.3078 298° West 157 181 2,200 -417 Descending Cleveland Center
Thu 03:38:01 PM 42.6667 -83.3506 283° West 134 154 1,800 -444 Descending Cleveland Center

Login

Don't have an account? Register now (free) for customized features, flight alerts, and more!